Wind_Speed
17 18 20 20 19 18 19 20 20 18 17 16 15 14 13 13 13 13 11 10 10 11 11 12 12 12 11 11 12 12 13 14 15 16 17 17 18 18 19 19 20 20
18 18 18 17 16 16 17 19 21 19 18 17 16 15 15 14 14 14 12 11 10 11 11 12 12 12 13 12 12 11 11 12 12 13 14 15 16 17 17 18 18 19
19 18 17 16 15 15 17 20 22 21 20 18 16 15 15 15 16 15 14 13 12 11 12 12 12 12 12 12 12 12 12 12 12 12 13 13 14 15 15 16 17 17
17 16 17 17 16 17 18 20 23 24 22 19 17 16 15 15 16 16 17 16 15 13 13 13 13 12 12 12 12 13 13 14 14 13 13 13 13 14 15 15 15 16
17 16 16 16 17 18 17 20 24 25 23 20 17 16 16 16 16 17 17 18 17 16 15 13 13 13 13 12 12 12 13 14 14 15 15 14 14 14 14 15 16 16
16 13 12 14 16 18 17 19 23 24 21 19 18 17 17 17 17 17 17 17 17 16 15 14 13 13 13 13 13 13 13 13 14 14 15 15 15 15 15 16 16 16
15 14 16 17 17 19 19 19 21 22 21 21 19 17 16 16 16 16 16 17 16 16 15 14 14 14 14 14 15 15 15 14 14 14 15 15 16 16 16 17 17 17
17 19 21 19 18 19 20 20 21 22 23 23 23 20 18 16 16 16 16 16 16 16 16 16 15 15 15 15 16 16 16 16 15 15 15 16 16 16 17 17 17 18
19 21 21 19 18 20 20 20 21 22 23 25 25 24 22 19 17 17 17 17 16 15 15 16 16 16 16 17 17 17 17 17 16 16 16 17 17 17 17 17 17 18
21 21 22 21 19 19 18 17 18 21 23 25 26 24 22 21 19 19 18 18 18 18 19 19 19 19 19 19 20 19 19 19 19 19 19 18 19 19 19 19 19 18
23 23 23 21 19 18 17 16 18 19 20 22 24 23 22 22 22 22 21 20 21 22 23 24 23 22 22 23 23 22 21 21 21 21 21 20 20 20 21 21 21 21
24 23 19 16 17 20 20 20 20 19 17 18 20 20 20 21 22 23 22 20 20 20 21 23 24 23 24 24 24 24 24 23 23 23 23 22 22 22 23 23 23 23
25 23 21 22 25 26 23 21 20 20 21 22 22 23 22 21 22 23 24 23 22 21 20 22 24 24 25 26 25 24 25 25 24 25 25 24 24 24 24 25 25 26
28 27 27 29 29 26 23 23 23 24 25 25 25 26 27 26 26 27 28 27 26 25 25 26 26 26 26 27 27 26 26 26 27 28 28 28 27 26 27 27 28 28
31 30 30 30 29 28 28 29 29 29 27 27 27 28 28 28 27 27 28 28 28 29 29 29 29 28 28 27 27 28 28 29 29 30 30 30 30 29 29 30 30 31
32 31 31 31 31 32 33 34 33 32 31 30 30 30 30 30 29 30 31 32 31 31 31 31 31 31 31 30 29 30 31 32 32 33 32 33 33 32 32 33 34 35
33 33 33 34 34 35 35 35 34 34 33 33 33 33 34 34 35 36 35 35 34 34 34 34 33 33 33 32 32 33 33 34 34 35 34 34 35 34 34 36 38 40
39 39 40 40 40 39 37 36 35 34 34 34 35 35 35 35 36 36 35 35 35 35 35 35 34 34 34 34 34 35 35 36 37 37 37 37 37 37 37 38 39 41
44 44 44 44 43 41 39 38 37 36 35 35 35 35 35 35 35 35 34 33 33 34 35 35 35 34 34 35 36 36 37 37 38 39 40 40 40 40 40 41 41 42
45 44 44 43 42 41 40 39 38 37 37 37 37 37 37 37 37 36 35 34 34 35 36 36 37 36 36 37 38 39 39 39 40 41 41 42 42 42 42 43 44 44
44 44 43 42 41 40 39 39 39 39 39 40 40 40 40 39 38 37 37 37 38 38 39 40 40 41 41 41 41 41 42 42 42 42 42 42 43 44 44 45 46 46
45 44 44 43 43 42 41 42 42 43 42 42 42 42 41 40 39 39 39 40 41 42 43 43 44 45 45 45 44 43 42 43 43 43 43 43 43 44 45 46 47 48
48 48 48 47 47 46 46 46 46 46 46 45 44 44 43 42 42 42 42 43 44 45 46 46 47 48 48 48 47 45 43 43 44 44 44 44 44 44 45 46 47 48
51 51 50 50 51 51 51 50 49 49 49 48 47 46 46 45 45 45 46 47 47 47 48 48 48 49 50 51 50 48 46 45 44 44 44 44 44 45 45 45 46 47
50 49 49 49 50 51 52 52 52 51 50 50 49 48 48 48 48 49 51 51 50 49 49 50 50 51 51 51 51 50 49 48 47 46 45 45 44 45 45 45 46 47
44 45 47 48 48 48 49 50 50 49 49 50 50 50 50 52 53 54 53 52 51 50 51 51 52 52 51 51 50 50 49 49 48 47 46 46 46 45 45 46 46 46
Wind_Direction
278 283 287 285 276 272 275 276 282 289 293 292 280 269 266 265 264 257 248 243 242 243 243 244 245 247 251 256 260 264 265 266 267 268 268 268 268 268 266 265 264 262
275 280 282 276 265 267 274 278 283 286 288 289 283 275 271 268 269 267 261 254 248 247 247 248 250 250 251 252 255 260 264 267 270 271 272 273 273 273 272 271 269 267
277 277 270 261 258 267 275 278 285 287 284 285 282 277 275 273 274 274 270 266 260 255 252 250 251 252 256 259 261 264 265 267 269 271 273 276 277 278 277 276 275 272
275 267 259 260 264 269 275 277 281 283 281 279 278 277 278 277 277 277 275 271 267 262 257 254 253 251 253 257 262 267 268 269 270 271 273 275 277 280 280 279 277 275
271 262 259 267 267 267 272 274 278 280 276 273 276 278 279 278 278 276 274 272 269 266 264 264 265 264 262 261 261 264 267 270 271 272 273 273 274 275 276 276 276 274
278 269 269 278 275 273 272 271 277 278 270 268 275 277 275 276 277 274 271 270 268 268 268 270 274 277 277 274 271 269 268 271 274 276 276 277 276 274 272 271 271 271
280 273 279 288 286 280 276 273 274 271 265 267 271 271 271 272 273 274 273 272 272 271 271 272 275 278 279 280 279 277 275 273 275 278 280 281 280 277 276 274 271 269
278 278 283 289 289 284 278 272 267 264 265 269 269 269 273 272 271 274 275 275 275 274 274 274 276 279 279 277 278 281 280 276 274 276 278 281 281 280 278 277 275 272
281 285 288 289 290 289 282 270 262 261 264 268 269 271 274 273 271 274 278 278 277 275 273 274 277 281 283 279 277 278 279 278 276 275 275 276 278 279 279 278 277 275
287 292 292 289 288 286 279 267 260 262 264 266 269 273 274 273 271 273 275 275 275 274 274 276 278 281 283 282 278 274 272 273 274 274 274 273 274 276 277 277 276 274
294 298 292 285 282 278 273 270 269 271 270 268 269 272 274 271 268 267 265 262 267 272 273 274 276 278 282 284 280 273 269 269 270 271 272 272 272 272 274 276 276 274
294 297 287 274 278 282 278 275 273 271 272 271 267 267 272 271 263 260 261 264 271 275 275 273 272 275 280 283 281 274 269 268 270 271 271 271 272 272 271 271 272 272
290 289 279 273 282 285 276 270 270 270 274 277 271 267 269 270 265 263 266 274 277 277 279 278 277 279 280 281 281 275 269 269 271 273 273 271 272 273 272 269 268 267
285 284 279 278 281 280 271 269 275 278 280 279 273 268 267 268 271 268 266 270 274 276 280 282 281 282 280 279 280 277 272 272 274 276 275 272 272 275 274 271 268 267
281 282 280 278 279 277 274 276 279 279 277 273 268 267 267 268 269 266 264 271 277 279 280 280 279 279 277 275 275 274 273 274 276 277 275 273 274 277 276 273 270 268
278 278 277 277 277 276 276 277 279 279 276 272 269 270 270 267 265 266 272 278 281 280 280 280 279 278 277 275 273 272 272 272 273 274 274 273 275 277 278 277 274 271
275 276 277 278 277 276 276 277 278 278 276 274 272 271 269 267 269 275 280 283 282 282 282 281 279 276 274 273 272 271 271 270 270 271 271 271 272 273 273 273 272 272
272 274 276 277 277 277 277 277 276 275 274 273 273 273 274 274 277 281 284 283 282 281 281 280 278 276 274 272 271 269 269 268 268 268 268 268 268 269 269 267 267 269
272 274 275 276 277 277 277 276 275 274 274 274 275 276 278 279 280 281 281 280 279 278 279 279 278 276 276 275 273 271 268 266 266 266 265 265 265 265 266 266 266 266
272 273 273 274 275 275 275 275 274 274 274 275 275 276 277 277 277 277 277 277 278 279 280 280 278 276 276 277 276 273 271 268 265 264 263 263 263 263 264 265 266 266
270 270 271 272 272 272 273 273 273 273 273 273 273 274 275 275 274 274 275 277 279 280 281 281 280 279 279 279 279 275 272 270 268 266 264 263 262 263 263 264 265 266
268 268 268 268 269 269 269 270 270 271 270 271 272 273 273 273 273 274 275 277 279 280 281 281 281 280 281 282 281 278 273 271 269 268 267 266 264 263 263 263 263 264
267 268 268 268 267 267 267 267 268 269 269 270 271 271 270 271 271 272 274 277 279 279 279 279 279 280 280 282 282 279 275 272 270 269 268 268 267 266 265 264 264 264
267 267 268 267 266 265 265 265 266 266 267 269 269 269 269 269 269 271 275 278 278 277 276 277 277 278 279 280 281 279 277 275 273 271 269 268 268 267 267 266 265 265
267 268 267 265 264 264 263 264 265 266 267 268 269 269 269 269 271 274 277 278 276 275 274 274 275 276 277 277 278 278 278 277 276 274 273 272 271 270 269 268 267 266
261 263 264 263 262 262 262 263 265 266 267 267 267 267 268 270 273 276 277 276 274 273 273 273 274 274 275 275 276 276 276 276 276 276 275 275 274 273 272 271 271 270
Height
5744 5744 5744 5745 5744 5744 5744 5745 5745 5745 5745 5745 5745 5745 5745 5745 5745 5746 5746 5746 5746 5746 5747 5747 5747 5747 5747 5747 5747 5747 5747 5747 5747 5748 5748 5748 5748 5748 5747 5747 5747 5747
5740 5741 5741 5742 5742 5742 5742 5742 5742 5742 5742 5742 5742 5742 5743 5743 5743 5744 5744 5744 5744 5744 5745 5745 5745 5745 5745 5745 5745 5745 5745 5745 5745 5746 5746 5746 5746 5746 5746 5746 5745 5745
5737 5738 5738 5739 5740 5740 5740 5740 5739 5740 5740 5740 5740 5740 5740 5741 5741 5741 5742 5742 5742 5742 5743 5743 5743 5743 5743 5743 5743 5743 5743 5743 5743 5743 5743 5743 5744 5744 5744 5744 5744 5744
5734 5735 5736 5736 5737 5738 5738 5738 5737 5737 5737 5737 5738 5738 5738 5739 5739 5739 5739 5740 5740 5740 5741 5741 5741 5741 5741 5741 5741 5741 5741 5741 5741 5741 5741 5741 5741 5742 5742 5742 5742 5742
5732 5733 5734 5734 5735 5735 5736 5736 5735 5735 5735 5734 5735 5735 5736 5736 5737 5737 5737 5738 5738 5738 5739 5739 5739 5739 5739 5739 5739 5739 5739 5739 5739 5739 5739 5739 5739 5740 5740 5740 5740 5740
5731 5731 5732 5732 5732 5733 5734 5734 5734 5733 5732 5732 5732 5733 5733 5734 5734 5735 5735 5735 5736 5736 5736 5737 5737 5737 5738 5738 5737 5737 5737 5737 5737 5737 5737 5737 5737 5737 5738 5738 5738 5738
5730 5729 5729 5730 5730 5730 5731 5732 5732 5731 5730 5730 5730 5730 5731 5731 5732 5732 5733 5733 5734 5734 5735 5735 5735 5735 5735 5735 5736 5736 5735 5735 5735 5735 5735 5735 5735 5735 5735 5736 5736 5736
5727 5727 5726 5727 5727 5727 5729 5729 5729 5728 5728 5727 5727 5727 5728 5729 5729 5729 5730 5731 5732 5733 5733 5733 5733 5733 5733 5733 5733 5733 5733 5733 5733 5733 5733 5733 5733 5734 5734 5734 5734 5734
5724 5723 5723 5724 5725 5725 5725 5725 5725 5725 5726 5725 5724 5724 5725 5726 5726 5727 5728 5729 5730 5730 5730 5730 5731 5731 5731 5731 5731 5731 5731 5731 5731 5731 5731 5731 5732 5732 5732 5732 5732 5732
5721 5721 5721 5721 5722 5722 5722 5722 5722 5723 5724 5723 5723 5722 5722 5723 5723 5723 5724 5725 5726 5727 5727 5727 5728 5728 5729 5729 5729 5729 5729 5729 5729 5729 5729 5729 5730 5730 5730 5730 5730 5731
5718 5718 5718 5718 5718 5719 5720 5720 5720 5721 5721 5721 5720 5721 5721 5721 5721 5721 5720 5721 5723 5724 5724 5724 5725 5725 5725 5726 5726 5726 5726 5726 5726 5726 5726 5726 5727 5727 5728 5728 5728 5728
5715 5715 5715 5715 5716 5717 5718 5718 5718 5718 5719 5719 5719 5719 5719 5719 5720 5720 5719 5719 5720 5720 5720 5721 5721 5722 5722 5722 5722 5723 5723 5724 5724 5724 5724 5724 5724 5724 5725 5725 5725 5725
5711 5712 5712 5712 5713 5714 5714 5715 5715 5716 5716 5717 5717 5716 5716 5717 5717 5718 5718 5718 5717 5717 5717 5717 5718 5719 5718 5718 5719 5719 5719 5720 5721 5721 5721 5721 5721 5721 5721 5721 5722 5722
5707 5708 5708 5708 5709 5709 5710 5710 5711 5712 5713 5714 5713 5713 5713 5713 5714 5714 5714 5715 5714 5714 5714 5714 5714 5715 5715 5715 5715 5715 5715 5716 5717 5718 5718 5718 5718 5718 5718 5718 5718 5718
5702 5703 5703 5703 5704 5705 5705 5706 5707 5708 5710 5710 5710 5709 5709 5709 5709 5709 5709 5710 5710 5710 5711 5711 5711 5711 5711 5711 5711 5711 5712 5712 5713 5713 5714 5714 5714 5713 5713 5714 5714 5714
5698 5698 5699 5699 5699 5700 5701 5702 5702 5703 5704 5705 5705 5705 5705 5705 5705 5703 5704 5705 5706 5706 5707 5707 5707 5706 5706 5707 5707 5708 5708 5708 5708 5709 5709 5709 5709 5709 5709 5709 5709 5709
5693 5693 5693 5694 5695 5695 5696 5696 5697 5697 5698 5698 5699 5700 5700 5700 5699 5697 5698 5699 5699 5700 5701 5701 5701 5701 5701 5702 5703 5703 5703 5704 5704 5704 5704 5704 5704 5704 5705 5705 5704 5703
5687 5687 5687 5688 5689 5689 5690 5691 5691 5692 5693 5693 5693 5693 5693 5692 5691 5691 5691 5692 5693 5694 5695 5695 5695 5696 5696 5697 5697 5698 5698 5699 5699 5699 5699 5699 5699 5699 5700 5700 5699 5699
5680 5681 5681 5681 5682 5683 5684 5684 5685 5686 5687 5687 5687 5687 5687 5686 5686 5687 5687 5688 5689 5689 5690 5690 5690 5690 5690 5691 5691 5692 5692 5693 5694 5694 5694 5694 5694 5694 5694 5694 5694 5694
5674 5674 5675 5675 5676 5677 5677 5678 5679 5680 5680 5681 5681 5682 5682 5682 5683 5683 5683 5684 5684 5685 5685 5685 5684 5684 5685 5685 5685 5686 5686 5687 5688 5688 5688 5688 5688 5688 5688 5688 5688 5687
5669 5669 5669 5670 5671 5672 5672 5673 5674 5674 5675 5675 5676 5677 5677 5678 5678 5679 5679 5679 5679 5679 5679 5679 5679 5679 5679 5679 5679 5680 5680 5681 5681 5681 5682 5682 5682 5682 5682 5682 5682 5681
5663 5663 5664 5665 5666 5667 5667 5668 5668 5669 5669 5670 5671 5671 5672 5673 5673 5673 5673 5673 5673 5673 5673 5673 5672 5672 5672 5672 5673 5673 5674 5674 5674 5674 5675 5675 5675 5676 5676 5676 5676 5675
5657 5657 5659 5659 5660 5661 5661 5662 5662 5663 5664 5664 5665 5666 5666 5666 5666 5667 5667 5667 5667 5667 5667 5666 5666 5666 5666 5666 5666 5666 5667 5667 5667 5668 5668 5668 5668 5669 5669 5669 5669 5669
5650 5651 5652 5653 5653 5654 5654 5655 5656 5656 5657 5658 5659 5659 5660 5660 5660 5661 5661 5661 5661 5661 5661 5660 5660 5659 5659 5659 5659 5659 5660 5660 5661 5661 5662 5662 5662 5662 5662 5662 5662 5662
5644 5644 5645 5645 5646 5646 5647 5647 5648 5649 5650 5651 5652 5652 5652 5653 5653 5653 5654 5654 5654 5654 5654 5654 5653 5653 5653 5653 5653 5653 5653 5653 5654 5654 5655 5655 5655 5656 5656 5656 5656 5655
5638 5638 5638 5638 5638 5639 5640 5640 5641 5642 5643 5644 5645 5645 5645 5645 5645 5646 5646 5646 5646 5646 5647 5647 5647 5647 5647 5647 5647 5647 5647 5647 5647 5647 5648 5648 5648 5648 5648 5648 5648 5648